Showing default

SINOD-D 3, 40977

Orbit data source: Space-Track

SINOD-D 3, 40977 is a payload satellite owned by SRI (US) in LEO that was launched on Thu, 08 Oct 2015 UTC via an ATLAS V 401 launch vehicle from the Air Force Western Test Range (AFWTR). Payloads include a variety of satellites, spacecraft, and rockets equipped with specific instruments for various scientific and technological missions. These include communications satellites like Starlink; space stations such as the ISS; scientific satellites like the Hubble; Earth observation satellites from companies like Planet Labs, Umbra, and HawkEye 360; GPS; miniature CubeSats for education and research; and military/defense satellites.

Loading next visibility...
SINOD-D 3 details
Identifier
40977, 2015-058P
Orbit
LEO
Last TLE update22 hours ago
Origin
Flag of USSRI (US)
ManufacturerSRI
MissionOperational Commercial Technology
Bus & MotorCUBESAT 2U, Unknown motor
Mass2 kg wet, 2 kg dry
Launch date (UTC)
2015-10-08 (9 years ago)
Launch vehicle
ATLAS V 401
Launch site
Air Force Western Test Range (AFWTR)
Object type
Payload
Rocket body
Debris
Shape & HBRBox, 0.2 m
Radar Cross Section0.040 m², Small (<0.1 m²)

Expand to show TLE details & history

TLE from 22 hours ago
0 SINOD-D 3
1 40977U 15058P   24360.56641140  .00014176  00000-0  11953-2 0  9998
2 40977  64.7727 150.4878 0175990 248.6610 109.5638 14.87099331 34445
Epoch: 2024-12-25T13:35Z
Definitive object data (Epoch: 2024-12-25T13:35:37.944Z)
Latitude-0.00004°
Longitude-147.97864°
Altitude652.08 km
Speed7.509 km/s
True Right ascension10h 01m 57s
True Declination0° 00' 00"
Sunlit
Object was in full shadow at TLE epoch
Visualization TLE readout
Latitude44.60216°
Longitude1.71863°
Altitude670.814 km
Speed7.495 km/s
Apparent Right ascension21h 15m 08s
Apparent Declination5° 12' 30"
Sunlit
Object is in daylight
Visualization observer readout
Local Sidereal Time10:31:32
Azimuth25.824° NE
Elevation-41.568°
Doppler factor1
Orbital elements
Apogee altitude728.48 km
Perigee altitude482.667 km
Semi-major axis6,983.711 km
Eccentricity0.017599
Inclination64.7727°
RAAN150.4878°
Arg. of periapsis248.661°
True anomaly111.44983°
Mean anomaly109.5638°
Eccentric anomaly110.50824°
Mean motion3.71889 °/min
BSTAR0.0011953
Orbital period96.8 mins
Loading maneuver chart data...
Loading historical data...
Loading historical data...
Loading historical data...
Loading historical data...
Loading historical data...
Loading historical data...
Loading historical data...

SINOD-D 3 Visibility forecast

Observer location: undefined°, undefined

Span
Click to sort rows by Start time (UTC) header in descending order
Start Az.
Max El. time (UTC)
Max El. Az.
Max El.
End time (UTC)
End Az.
9 mins2024-12-26 12:20:14.628Z227.841° WSW2024-12-26 12:24:14.628Z293.857° NW40.049°2024-12-26 12:29:14.628Z24.014° NE
8 mins2024-12-26 20:49:14.628Z326.872° NNW2024-12-26 20:53:14.628Z166.229° S44.025°2024-12-26 20:57:14.628Z151.359° SSE
7 mins2024-12-27 10:55:14.628Z167.4° S2024-12-27 10:58:14.628Z115.49° SE28.899°2024-12-27 11:02:14.628Z53.483° ENE
|